Weather History for Grosse Ile, MI

Change the Weather History Date:

Wednesday, June 18, 2014

  Actual Average (KDTW) Record (KDTW)
Temperature  
Mean Temperature 72 °F 70 °F  
Max Temperature 78 °F 80 °F 99 °F (1994)
Min Temperature 66 °F 61 °F 47 °F (1965)
Degree Days  
Heating Degree Days 0 1  
Month to date heating degree days 30  
Since 1 June heating degree days 30  
Since 1 July heating degree days 6132  
Cooling Degree Days 7 6  
Month to date cooling degree days 79  
Year to date cooling degree days 127  
Since 1 June cooling degree days 79  
Growing Degree Days 22 (Base 50)    
Moisture  
Dew Point 66 °F    
Average Humidity 82    
Maximum Humidity 94    
Minimum Humidity 57    
Precipitation  
Precipitation 1.31 in 0.12 in 1.77 in (2014)
Month to date precipitation 2.19  
Year to date precipitation 14.73  
Snow  
Snow 0.00 in 0.00 in 0.00 in ()
Month to date snowfall 0.0  
Since 1 June snowfall 0.0  
Since 1 July snowfall 42.5  
Snow Depth -    
Sea Level Pressure  
Sea Level Pressure 29.99 in    
Wind  
Wind Speed 4 mph (SE)    
Max Wind Speed 16 mph    
Max Gust Speed 28 mph    
Visibility 9 miles    
Events Rain    
T = Trace of Precipitation, MM = Missing Value Source: NWS Daily Summary

Daily Weather History Graph

Daily Weather History Graph

Search for Another Location

Airport:

Trip Planner

Search our weather history database for the weather conditions in past years. The results will help you decide how hot, cold, wet, or windy it might be!

Date:

Astronomy

Jun. 18, 2014 Rise Set
Actual Time 5:56 AM EDT 9:11 PM EDT
Civil Twilight 5:21 AM EDT 9:45 PM EDT
Nautical Twilight 4:37 AM EDT 10:30 PM EDT
Astronomical Twilight 3:43 AM EDT 11:24 PM EDT
Moon 12:33 AM EDT (6/18) 12:24 PM EDT (6/18)
Length of Visible Light 16h 24m
Length of Day
15h 15m
Waning Gibbous, 63% of the Moon is Illuminated
Jun 18
Waning Gibbous
Jun 19
Last Quarter
Jun 27
New
Jul 5
First Quarter
Jul 12
Full

Hourly Weather History & Observations

Time (EDT) Temp. Dew Point Humidity Pressure Visibility Wind Dir Wind Speed Gust Speed Precip Events Conditions
12:14 AM 78.8 °F 62.6 °F 57% 29.95 in 10.0 mi WNW 3.5 mph - N/A   Mostly Cloudy
12:34 AM 78.8 °F 62.6 °F 57% 29.94 in 10.0 mi Calm Calm - N/A   Scattered Clouds
12:54 AM 77.0 °F 62.6 °F 61% 29.94 in 10.0 mi NW 3.5 mph - N/A   Scattered Clouds
1:14 AM 75.2 °F 62.6 °F 65% 29.95 in 10.0 mi NW 3.5 mph - N/A   Mostly Cloudy
1:34 AM 75.2 °F 62.6 °F 65% 29.95 in 10.0 mi WNW 3.5 mph - N/A   Mostly Cloudy
1:54 AM 75.2 °F 62.6 °F 65% 29.95 in 10.0 mi NW 3.5 mph - N/A   Mostly Cloudy
2:14 AM 75.2 °F 62.6 °F 65% 29.96 in 10.0 mi SW 4.6 mph - N/A   Mostly Cloudy
2:34 AM 75.2 °F 62.6 °F 65% 29.96 in 10.0 mi WNW 3.5 mph - N/A   Overcast
2:54 AM 75.2 °F 62.6 °F 65% 29.97 in 10.0 mi NW 3.5 mph - N/A   Overcast
3:14 AM 75.2 °F 62.6 °F 65% 29.96 in 10.0 mi Calm Calm - N/A   Overcast
3:34 AM 75.2 °F 62.6 °F 65% 29.96 in 10.0 mi Calm Calm - N/A   Overcast
3:54 AM 73.4 °F 64.4 °F 73% 29.96 in 10.0 mi Calm Calm - N/A Rain Light Rain
4:14 AM 73.4 °F 66.2 °F 78% 29.95 in 10.0 mi Calm Calm - N/A   Overcast
4:34 AM 73.4 °F 66.2 °F 78% 29.95 in 10.0 mi Calm Calm - N/A   Overcast
4:54 AM 71.6 °F 66.2 °F 83% 29.96 in 10.0 mi NE 6.9 mph - N/A   Overcast
5:15 AM 69.8 °F 66.2 °F 88% 29.99 in 10.0 mi NE 10.4 mph - N/A Rain Rain
5:34 AM 68.0 °F 64.4 °F 88% 29.99 in 10.0 mi ENE 8.1 mph - 0.01 in Rain Light Rain
5:54 AM 68.0 °F 64.4 °F 88% 30.03 in 10.0 mi NNE 16.1 mph - 0.01 in   Overcast
6:14 AM 66.2 °F 64.4 °F 94% 30.04 in 2.5 mi NW 9.2 mph - 0.30 in Rain Heavy Rain
6:34 AM 66.2 °F 64.4 °F 94% 30.01 in 5.0 mi East 10.4 mph - 0.52 in Rain Heavy Rain
6:54 AM 66.2 °F 64.4 °F 94% 29.99 in 10.0 mi ESE 9.2 mph - 0.71 in Rain Heavy Rain
7:14 AM 66.2 °F 64.4 °F 94% 30.00 in 10.0 mi SE 6.9 mph - N/A   Overcast
7:34 AM 66.2 °F 64.4 °F 94% 30.02 in 10.0 mi ESE 4.6 mph - N/A   Mostly Cloudy
7:54 AM 68.0 °F 64.4 °F 88% 30.09 in 10.0 mi North 15.0 mph 27.6 mph N/A   Overcast
8:14 AM 68.0 °F 64.4 °F 88% 30.06 in 7.0 mi East 8.1 mph - 0.01 in Rain Rain
8:34 AM 66.2 °F 64.4 °F 94% 30.05 in 7.0 mi East 5.8 mph - 0.02 in   Mostly Cloudy
8:54 AM 68.0 °F 64.4 °F 88% 30.04 in 5.0 mi ESE 3.5 mph - 0.02 in   Mostly Cloudy
9:14 AM 68.0 °F 64.4 °F 88% 30.03 in 10.0 mi Calm Calm - N/A   Scattered Clouds
9:34 AM 68.0 °F 64.4 °F 88% 30.03 in 10.0 mi SE 3.5 mph - N/A   Clear
9:54 AM 69.8 °F 66.2 °F 88% 30.04 in 10.0 mi Calm Calm - N/A   Clear
10:14 AM 69.8 °F 66.2 °F 88% 30.02 in 10.0 mi NE 3.5 mph - N/A   Scattered Clouds
10:34 AM 71.6 °F 66.2 °F 83% 30.02 in 10.0 mi Calm Calm - N/A   Scattered Clouds
10:54 AM 71.6 °F 66.2 °F 83% 30.02 in 10.0 mi Calm Calm - N/A   Clear
11:14 AM 71.6 °F 66.2 °F 83% 30.03 in 10.0 mi SSE 3.5 mph - N/A   Scattered Clouds
11:35 AM 73.4 °F 66.2 °F 78% 30.04 in 10.0 mi SE 4.6 mph - N/A   Scattered Clouds
11:54 AM 73.4 °F 66.2 °F 78% 30.04 in 10.0 mi SSE 4.6 mph - N/A   Scattered Clouds
12:14 PM 73.4 °F 68.0 °F 83% 30.04 in 10.0 mi South 6.9 mph - N/A   Clear
12:34 PM 73.4 °F 68.0 °F 83% 30.03 in 10.0 mi South 6.9 mph - N/A   Clear
12:54 PM 73.4 °F 68.0 °F 83% 30.02 in 10.0 mi SSE 6.9 mph - N/A   Clear
1:14 PM 75.2 °F 68.0 °F 78% 30.01 in 10.0 mi SE 5.8 mph - N/A   Clear
1:34 PM 75.2 °F 68.0 °F 78% 30.01 in 10.0 mi South 6.9 mph - N/A   Clear
1:54 PM 75.2 °F 68.0 °F 78% 30.00 in 10.0 mi South 9.2 mph - N/A   Clear
2:14 PM 75.2 °F 68.0 °F 78% 30.00 in 10.0 mi South 6.9 mph - N/A   Clear
2:34 PM 75.2 °F 68.0 °F 78% 29.99 in 10.0 mi South 9.2 mph - N/A   Clear
2:54 PM 75.2 °F 68.0 °F 78% 29.97 in 10.0 mi SE 8.1 mph - N/A   Clear
3:14 PM 75.2 °F 68.0 °F 78% 29.96 in 10.0 mi SE 5.8 mph - N/A   Clear
3:34 PM 77.0 °F 69.8 °F 78% 29.95 in 10.0 mi ESE 4.6 mph - N/A   Clear
3:54 PM 78.8 °F 69.8 °F 74% 29.95 in 10.0 mi Calm Calm - N/A   Clear
4:15 PM 78.8 °F 69.8 °F 74% 29.96 in 10.0 mi Calm Calm - N/A   Clear
4:34 PM 78.8 °F 69.8 °F 74% 29.97 in 10.0 mi West 4.6 mph - N/A   Mostly Cloudy
4:54 PM 75.2 °F 71.6 °F 89% 30.00 in 10.0 mi NW 12.7 mph 18.4 mph 0.01 in Rain Light Rain
5:14 PM 69.8 °F 64.4 °F 83% 29.99 in 3.0 mi WNW 11.5 mph 27.6 mph 0.15 in Rain Heavy Rain
5:34 PM 69.8 °F 66.2 °F 88% 29.97 in 10.0 mi NNW 4.6 mph - 0.16 in Rain Light Rain
5:55 PM 69.8 °F 66.2 °F 88% 29.92 in 10.0 mi SE 15.0 mph - 0.18 in Rain Rain
6:14 PM 69.8 °F 66.2 °F 88% 29.93 in 10.0 mi SSE 5.8 mph - 0.03 in Rain Rain
6:34 PM 69.8 °F 66.2 °F 88% 29.93 in 10.0 mi ENE 4.6 mph - 0.04 in Rain Light Rain
6:54 PM 69.8 °F 66.2 °F 88% 29.93 in 10.0 mi ENE 6.9 mph - 0.05 in Rain Light Rain
7:14 PM 69.8 °F 66.2 °F 88% 29.93 in 10.0 mi NE 5.8 mph - N/A Rain Light Rain
7:34 PM 69.8 °F 66.2 °F 88% 29.93 in 10.0 mi North 3.5 mph - N/A   Clear
7:54 PM 69.8 °F 66.2 °F 88% 29.95 in 10.0 mi WNW 4.6 mph - N/A   Clear
8:14 PM 69.8 °F 66.2 °F 88% 29.95 in 10.0 mi Calm Calm - N/A   Clear
8:34 PM 69.8 °F 66.2 °F 88% 29.96 in 10.0 mi Calm Calm - N/A   Scattered Clouds
8:54 PM 69.8 °F 66.2 °F 88% 29.98 in 10.0 mi SW 3.5 mph - N/A   Scattered Clouds
9:14 PM 69.8 °F 66.2 °F 88% 29.98 in 10.0 mi SW 5.8 mph - N/A   Mostly Cloudy
9:35 PM 69.8 °F 66.2 °F 88% 29.99 in 10.0 mi Calm Calm - N/A   Overcast
9:54 PM 69.8 °F 66.2 °F 88% 30.02 in 10.0 mi Calm Calm - N/A Rain Rain
10:14 PM 69.8 °F 66.2 °F 88% 30.03 in 7.0 mi SW 3.5 mph - 0.07 in Rain Heavy Rain
10:34 PM 69.8 °F 66.2 °F 88% 30.02 in 7.0 mi SSW 3.5 mph - 0.15 in Rain Heavy Rain
10:54 PM 69.8 °F 66.2 °F 88% 30.01 in 7.0 mi Calm Calm - 0.24 in Rain Heavy Rain
11:14 PM 69.8 °F 66.2 °F 88% 30.02 in 7.0 mi Calm Calm - 0.02 in Rain Light Rain
11:34 PM 69.8 °F 66.2 °F 88% 30.04 in 5.0 mi Calm Calm - 0.04 in Rain Rain
11:54 PM 69.8 °F 66.2 °F 88% 30.01 in 5.0 mi Calm Calm - 0.09 in Rain Rain